GW0870 Weather Reports


time (UTC)temp
F
wind
direction
speed
knots
gust
knots
rain 1hr
in
rain 24hr
in
rain mn
in
humidity
%
barometer
mb
20260505124549 62 172 1.7 12.2 0.00 0.00 0.00 74 1016.7
20260505123100 60 165 1.7 6.1 0.00 0.00 0.00 76 1016.7
20260505121550 59 158 0.0 6.1 0.00 0.00 0.00 79 1016.7
20260505120049 57 215 0.0 1.7 0.00 0.00 0.00 81 1016.5
20260505114558 56 0 0.0 2.6 0.00 0.00 0.00 81 1016.5
20260505113039 55 238 0.0 1.7 0.00 0.00 0.00 82 1016.3
20260505111545 54 157 0.0 0.9 0.00 0.00 0.00 83 1016.2
20260505101547 55 169 0.0 0.9 0.00 0.00 0.00 80 1016.2
20260505100045 54 0 0.0 0.9 0.00 0.00 0.00 80 1016.0
20260505094550 55 0 0.0 0.9 0.00 0.00 0.00 78 1015.9
20260505093047 56 0 0.0 0.0 0.00 0.00 0.00 76 1015.7
20260505091547 56 0 0.0 1.7 0.00 0.00 0.00 75 1015.6
20260505090051 57 0 0.0 0.0 0.00 0.00 0.00 74 1015.4
20260505084540 57 0 0.0 0.9 0.00 0.00 0.00 73 1015.2
20260505083043 57 0 0.0 0.9 0.00 0.00 0.00 73 1015.1
20260505081547 57 0 0.0 2.6 0.00 0.00 0.00 72 1015.0
20260505080050 57 0 0.0 2.6 0.00 0.00 0.00 71 1014.9
20260505074548 57 152 0.0 1.7 0.00 0.00 0.00 71 1014.9
20260505073055 57 0 0.0 0.9 0.00 0.00 0.00 71 1014.9
20260505071544 57 0 0.0 0.9 0.00 0.00 0.00 70 1014.8
20260505070051 57 0 0.0 1.7 0.00 0.00 0.00 69 1014.7
20260505064548 57 0 0.0 0.0 0.00 0.00 0.00 69 1014.5
20260505063048 58 0 0.0 0.9 0.00 0.00 0.00 67 1014.6
20260505061547 59 0 0.0 0.9 0.00 0.00 0.00 64 1014.8
20260505060050 59 222 0.0 2.6 0.00 0.00 0.00 62 1014.9
20260505054547 59 0 0.0 1.7 0.00 0.00 0.00 62 1014.9
20260505053052 58 223 0.0 2.6 0.00 0.00 0.00 62 1014.8
20260505051541 56 0 0.0 0.9 0.00 0.00 0.00 65 1015.0
20260505050122 54 204 0.0 2.6 0.00 0.00 0.00 68 1015.0
20260505041601 57 0 0.0 0.0 0.00 0.00 0.00 61 1015.0
20260505040057 57 0 0.0 0.0 0.00 0.00 0.00 61 1015.1
20260505034548 55 0 0.0 0.0 0.00 0.00 0.00 63 1015.0
20260505033049 55 0 0.0 0.0 0.00 0.00 0.00 66 1015.1
20260505031547 56 0 0.0 0.9 0.00 0.00 0.00 66 1015.0
20260505030048 56 0 0.0 0.9 0.00 0.00 0.00 64 1015.2
20260505024549 56 0 0.0 0.0 0.00 0.00 0.00 62 1015.2
20260505023052 58 0 0.0 0.0 0.00 0.00 0.00 60 1015.2
20260505021549 59 0 0.0 0.0 0.00 0.00 0.00 58 1015.0
20260505020045 60 0 0.0 0.0 0.00 0.00 0.00 54 1014.9
20260505014601 62 0 0.0 0.0 0.00 0.00 0.00 50 1014.8
20260505013044 63 0 0.0 0.9 0.00 0.00 0.00 48 1014.6
20260505011541 62 0 0.0 0.9 0.00 0.00 0.00 52 1014.3
20260505010049 63 0 0.0 0.9 0.00 0.00 0.00 49 1014.2
20260505004549 64 0 0.0 0.0 0.00 0.00 0.00 47 1014.1
20260505003045 67 0 0.0 0.0 0.00 0.00 0.00 43 1013.9
20260505001602 69 0 0.0 0.0 0.00 0.00 0.00 39 1013.8
20260505000115 72 0 0.0 0.0 0.00 0.00 0.00 35 1013.8
20260504234606 74 204 0.0 3.5 0.00 0.00 0.00 31 1013.5
20260504233040 75 162 0.0 2.6 0.00 0.00 0.00 29 1013.3
20260504231546 76 199 2.6 7.8 0.00 0.00 0.00 28 1013.3
20260504230047 76 146 1.7 7.0 0.00 0.00 0.00 27 1013.1
20260504224603 77 266 1.7 7.0 0.00 0.00 0.00 27 1013.1
20260504223044 78 227 2.6 7.0 0.00 0.00 0.00 24 1013.1
20260504221540 79 250 1.7 4.3 0.00 0.00 0.00 23 1013.2
20260504220050 79 247 1.7 6.1 0.00 0.00 0.00 23 1013.2
20260504214546 80 239 2.6 7.0 0.00 0.00 0.00 24 1013.2
20260504213101 79 148 2.6 5.2 0.00 0.00 0.00 25 1013.4
20260504211542 80 234 0.9 6.1 0.00 0.00 0.00 26 1013.3
20260504210041 80 186 1.7 7.0 0.00 0.00 0.00 26 1013.3
20260504204539 80 297 1.7 6.1 0.00 0.00 0.00 29 1013.5
20260504203102 79 153 2.6 7.8 0.00 0.00 0.00 27 1013.8
20260504201543 78 248 2.6 7.0 0.00 0.00 0.00 28 1014.0
20260504200046 79 121 0.9 4.3 0.00 0.00 0.00 27 1014.1
20260504194556 78 238 5.2 10.4 0.00 0.00 0.00 25 1014.3
20260504193051 80 205 0.9 3.5 0.00 0.00 0.00 26 1014.3
20260504191547 79 209 1.7 7.0 0.00 0.00 0.00 27 1014.5
20260504190058 79 272 0.9 4.3 0.00 0.00 0.00 26 1014.7
20260504184558 79 236 0.9 6.1 0.00 0.00 0.00 25 1015.0
20260504183042 79 231 0.9 4.3 0.00 0.00 0.00 26 1015.2
20260504181542 78 228 2.6 7.0 0.00 0.00 0.00 27 1015.4
20260504180053 76 153 0.9 7.0 0.00 0.00 0.00 28 1015.4
20260504174551 76 76 0.0 5.2 0.00 0.00 0.00 28 1015.3
20260504173049 76 260 0.9 7.0 0.00 0.00 0.00 28 1015.6
20260504171551 75 173 2.6 6.1 0.00 0.00 0.00 30 1015.8